SCP
-0 -0 0 0 0 0 -0 -0 0 -0 0 -0 -0 -0 0 -0 0 0 0 0 -0 -0 -0 -0 0 -0 -0 -0 0 0 -0 -0 -0 -0 0 0 -0 -0 -0 -0 -0 0 -0 -0 -0 -0 -0 -0 -0
-0 -0 0 0 0 -0 -0 0 -0 -0 -0 0 -0 -0 -0 -0 -0 0 0 -0 -0 -0 -0 -0 -0 0 -0 -0 -0 0 0 -0 -0 -0 -0 -0 0 0 0 -0 -0 0 -0 -0 -0 -0 -0 -0 -0
-0 -0 0 0 0 0 -0 -0 0 0 0 0 0 -0 -0 -0 -0 -0 0 0 0 -0 -0 0 -0 0 0 -0 -0 -0 -0 -0 -0 -0 -0 -0 -0 -0 -0 -0 -0 -0 0 0 0 0 0 0 -0
0 0 0 0 0 -0 0 -0 0 0 0 -0 -0 0 -0 -0 0 -0 -0 -0 0 0 0 -0 -0 0 0 -0 -0 -0 -0 -0 -0 -0 -0 -0 -0 -0 -0 -0 -0 -0 -0 0 0 0 0 0 0
0 0 -0 0 0 0 -0 0 -0 0 0 0 0 0 -0 0 -0 0 -0 -0 -0 -0 -0 -0 0 -0 0 0 -0 -0 -0 -0 -0 -0 -0 -0 -0 -0 -0 -0 -0 -0 -0 -0 0 0 0 0 0
0 0 -0 0 0 0 -0 0 -0 -0 0 0 -0 -0 0 0 0 0 0 0 -0 -0 -0 -0 0 0 0 0 0 -0 -0 -0 -0 -0 -0 -0 -0 -0 -0 -0 -0 -0 -0 -0 -0 -0 -0 -0 -0
0 0 0 0 0 -0 0 0 -0 -0 -0 -0 -0 -0 0 0 0 0 0 0 -0 -0 -0 -0 -0 0 -0 -0 -0 -0 0 0 0 -0 -0 -0 -0 -0 -0 -0 -0 -0 -0 -0 -0 -0 -0 -0 -0
0 0 -0 0 -0 -0 0 0 0 -0 -0 -0 0 0 0 -0 0 0 0 0 0 -0 -0 -0 -0 -0 -0 -0 0 -0 0 0 0 0 0 0 0 -0 -0 -0 -0 -0 -0 -0 -0 -0 -0 -0 -0
0 0 0 0 -0 0 0 -0 0 0 -0 -0 -0 -0 -0 -0 -0 0 0 0 0 0 -0 -0 -0 -0 0 -0 -0 0 0 0 0 0 0 0 0 0 0 0 0 -0 -0 -0 -0 -0 -0 -0 -0
-0 0 0 0 0 0 0 -0 -0 0 -0 -0 -0 -0 -0 -0 -0 -0 0 0 0 0 -0 0 -0 -0 -0 -0 0 0 0 0 0 0 0 -0 0 -0 -0 0 0 -0 -0 -0 -0 -0 -0 -0 -0
0 0 0 0 0 0 -0 -0 0 0 -0 0 -0 -0 -0 -0 -0 -0 -0 -0 0 0 -0 -0 -0 -0 -0 -0 -0 -0 0 0 0 0 0 0 0 0 0 0 0 0 0 0 0 0 0 0 0
-0 0 0 -0 0 0 0 0 -0 -0 -0 -0 -0 -0 -0 -0 0 0 0 -0 -0 -0 -0 -0 -0 -0 -0 -0 -0 -0 -0 0 0 0 0 0 0 0 0 0 0 0 0 0 0 0 0 0 0
0 0 0 0 0 0 0 -0 0 -0 -0 -0 -0 -0 -0 0 0 0 0 0 0 -0 -0 -0 -0 -0 -0 -0 -0 0 0 0 0 0 0 0 0 0 0 0 0 0 0 0 0 0 0 0 0
0 0 0 0 0 0 0 0 0 0 0 -0 0 0 0 0 0 0 0 0 0 0 0 0 0 0 0 0 0 0 0 0 0 0 0 0 0 0 0 0 0 0 0 0 0 0 0 0 0
0 0 0 0 0 0 0 0 0 0 0 0 0 0 0 0 0 0 0 0 0 0 0 0 0 0 0 0 0 0 0 0 0 0 0 0 0 0 0 0 0 0 0 0 0 0 0 0 0
-0 -0 0 0 0 0 0 0 0 0 0 0 0 0 0 0 0 0 0 0 0 0 0 0 0 0 0 0 0 0 0 0 0 1 1 1 1 1 1 1 1 1 1 1 1 1 0 0 0
0 -0 -0 0 0 0 -0 0 0 0 0 0 0 0 0 0 0 0 0 0 0 0 0 0 0 0 1 1 1 1 1 1 1 1 1 1 1 1 2 2 2 2 2 2 1 1 1 1 1
0 -0 0 -0 0 0 0 0 0 0 0 0 0 0 0 0 0 0 0 0 0 0 0 0 0 0 0 1 1 1 1 1 0 0 0 0 0 0 1 1 2 2 2 1 2 2 2 1 1
0 0 0 0 0 0 0 0 0 0 0 0 0 0 0 0 0 0 0 0 0 0 0 0 0 0 0 0 0 0 0 0 0 0 0 0 0 0 0 0 1 1 2 2 3 3 2 2 3
0 0 0 0 0 0 0 0 0 0 0 0 0 0 0 0 0 0 0 0 0 0 0 0 0 0 0 0 0 0 0 0 0 0 0 0 0 0 0 0 0 0 0 1 1 1 1 2 2
0 0 0 0 0 0 0 0 0 0 0 0 0 0 0 0 0 0 0 0 0 0 0 0 0 0 0 0 0 0 0 0 0 0 0 0 0 0 0 0 0 0 0 0 0 0 0 0 0
0 0 0 0 0 0 0 0 0 0 0 0 0 0 0 0 0 0 0 0 0 0 0 0 0 0 0 0 0 0 0 0 0 0 0 0 0 0 0 0 0 0 0 0 0 0 0 0 0
0 0 0 0 0 0 0 0 0 0 0 0 0 0 0 0 0 0 0 0 0 0 0 0 0 0 0 0 0 0 0 0 0 0 0 0 0 0 0 0 0 0 0 0 0 0 0 0 0
0 0 0 0 0 0 0 0 0 0 0 0 0 0 0 0 0 0 0 0 0 0 0 0 0 0 0 0 0 0 0 0 0 0 0 0 0 0 0 0 0 0 0 0 0 0 0 0 0
0 0 0 0 0 0 0 0 0 0 0 0 0 0 0 0 0 0 0 0 0 0 0 0 0 0 0 0 0 0 0 0 0 0 0 0 0 0 0 0 0 0 0 0 0 0 0 0 0
0 0 0 0 0 0 0 0 0 0 0 0 0 0 0 0 0 0 0 0 0 0 0 0 0 0 0 0 0 0 0 0 0 0 0 0 0 0 0 0 0 0 0 0 0 0 0 0 0
0 0 0 0 0 0 0 0 0 0 0 0 0 0 0 0 0 0 0 0 0 0 0 0 0 0 0 0 0 0 0 0 0 0 0 0 0 0 0 0 0 0 0 0 0 0 0 0 0
0 0 0 0 0 0 0 0 0 0 0 0 0 0 0 0 0 0 0 0 0 0 0 0 0 0 0 0 0 0 0 0 0 0 0 0 0 0 0 0 0 0 0 0 0 0 0 0 0
0 0 0 0 0 0 0 0 0 0 0 0 0 0 0 0 0 0 0 0 0 0 0 0 0 0 0 0 0 0 0 0 0 0 0 0 0 0 0 0 0 0 0 0 0 0 0 0 0
0 0 0 0 0 0 0 0 0 0 0 0 0 0 0 0 0 0 0 0 0 0 0 0 0 0 0 0 0 0 0 0 0 0 0 0 0 0 0 0 0 0 0 0 0 0 0 0 0
Wind_Speed_500mb
17 21 17 10 13 10 18 21 7 14 8 14 11 11 26 27 22 13 30 27 35 33 29 28 29 29 28 26 24 21 16 14 12 11 12 12 12 13 14 16 19 22 23 25 28 30 33 31 26
13 14 9 13 13 13 19 9 19 19 23 12 12 12 25 18 23 35 31 34 37 33 30 27 25 27 24 22 19 14 12 12 11 11 10 10 11 13 14 17 20 22 24 26 27 26 26 24 18
7 5 11 8 6 17 21 18 20 16 8 8 11 22 15 16 27 24 30 41 35 32 29 27 25 24 23 21 20 17 15 14 13 13 12 12 11 11 13 15 16 16 17 17 18 19 17 13 9
4 6 9 13 6 17 10 15 12 18 17 9 14 23 24 26 14 23 39 38 35 30 27 26 23 23 20 17 16 13 12 12 12 11 11 11 11 10 9 9 10 11 13 14 16 16 12 8 3
6 9 11 11 7 6 5 7 2 15 17 20 11 21 26 8 20 35 39 36 33 30 25 24 22 18 17 15 12 10 8 7 7 7 8 8 8 7 5 3 5 7 9 11 14 15 13 10 8
13 9 13 19 11 5 5 5 7 17 21 19 33 35 18 14 29 33 35 33 29 29 26 23 21 19 16 13 11 9 6 4 4 4 6 6 6 6 4 1 3 7 12 14 16 18 20 19 17
18 12 3 4 12 13 9 7 16 19 25 23 17 22 18 23 31 30 32 30 28 25 23 21 19 18 15 13 11 8 6 4 3 3 4 5 6 7 7 6 4 5 10 15 20 23 25 26 25
10 10 15 6 16 24 10 13 15 18 25 21 7 11 22 32 32 30 30 27 25 23 19 17 18 13 12 10 11 10 9 7 4 1 3 6 6 6 6 7 7 5 4 9 14 19 23 25 25
9 12 14 14 15 19 17 25 15 14 26 23 14 18 30 33 34 31 30 26 23 21 17 15 12 12 13 13 11 10 9 6 4 2 2 4 2 5 7 6 7 6 5 4 7 12 16 18 19
15 6 19 10 8 18 21 27 24 19 26 28 32 32 32 32 30 30 27 24 21 18 16 13 13 12 12 10 12 11 10 6 7 7 7 4 10 6 5 9 9 9 8 6 5 6 10 11 10
2 19 10 19 15 15 29 27 11 24 24 16 32 33 32 31 28 26 21 18 16 15 14 11 12 15 12 11 12 11 11 10 12 12 11 12 11 12 10 10 12 12 13 8 11 8 5 12 13
10 6 8 16 9 13 21 23 36 35 23 30 34 33 31 27 22 17 15 11 9 9 11 9 11 14 16 15 14 15 14 14 13 15 18 17 13 15 14 13 15 16 13 16 14 12 17 17 18
4 8 7 10 20 28 34 32 31 35 29 30 31 29 26 22 18 15 12 8 8 7 7 6 11 15 17 20 17 18 17 16 15 19 19 21 19 19 18 21 21 22 21 20 20 20 22 22 23
6 9 14 10 15 17 19 22 7 18 23 28 26 24 21 18 14 10 8 4 4 8 7 12 12 19 18 21 23 20 19 18 18 17 17 22 24 23 21 21 22 23 25 25 26 27 29 29 30
7 20 17 12 13 11 16 14 18 16 21 24 21 19 19 17 13 9 5 6 12 12 17 20 19 24 21 22 26 22 21 18 19 19 24 26 28 29 32 28 27 26 27 30 32 36 37 38 38
20 15 26 20 15 16 9 26 18 15 21 21 18 17 16 17 15 14 11 8 4 3 9 12 14 14 19 21 21 18 17 15 16 16 18 24 27 31 35 30 28 27 30 33 34 37 39 41 40
17 23 26 21 6 11 23 23 19 14 20 18 16 15 14 15 15 15 13 10 6 3 5 8 6 5 6 11 11 7 17 9 14 11 12 26 19 20 29 25 29 32 34 35 37 39 42 44 44
20 22 11 22 11 19 24 15 16 17 21 19 17 15 14 13 13 14 15 13 13 14 14 16 16 13 9 9 7 1 8 14 20 23 26 30 32 35 37 37 34 36 34 37 38 40 38 43 44
3 9 7 4 3 8 8 15 17 19 22 23 19 17 16 15 15 16 16 18 18 18 18 20 19 20 18 11 4 3 8 9 13 17 22 26 30 34 35 35 35 35 32 34 35 37 36 37 38
19 15 12 10 7 9 17 17 14 19 24 21 20 19 19 19 16 16 16 17 17 19 21 22 23 24 22 19 15 13 12 10 9 13 16 17 19 21 24 28 30 33 33 30 32 34 39 38 30
17 18 12 2 13 5 18 17 22 21 19 21 20 18 19 20 19 18 17 17 17 19 21 22 24 22 21 18 15 16 14 14 12 15 15 18 21 24 25 26 28 30 32 34 36 37 35 37 36
22 4 5 12 14 9 13 12 28 29 27 30 30 28 26 24 22 21 20 18 17 17 20 24 26 26 25 23 18 12 9 8 12 14 17 19 23 24 25 25 23 25 28 29 28 28 29 35 41
13 7 4 5 13 15 22 16 12 22 23 30 35 33 30 28 27 26 24 19 17 16 18 23 25 26 27 25 21 16 15 14 13 13 16 21 22 22 22 23 23 23 23 24 24 24 24 24 26
18 14 10 12 15 22 15 12 25 21 12 16 36 34 34 34 32 29 25 21 17 15 15 18 21 23 23 22 21 20 19 17 13 17 16 17 18 20 24 23 23 24 23 24 26 27 26 25 27
18 16 17 15 16 12 10 10 23 8 2 10 14 35 36 36 36 32 27 22 20 16 14 13 14 16 17 16 16 15 15 17 18 17 16 18 18 21 28 29 28 25 25 24 22 24 26 26 21
20 17 18 16 14 8 13 13 3 6 3 10 14 30 36 38 36 34 30 25 22 18 15 13 10 9 9 12 15 14 16 12 14 18 15 15 16 20 28 30 33 34 32 27 24 21 23 23 24
13 20 9 17 18 19 25 8 18 8 7 11 21 30 36 36 34 32 30 25 19 17 14 12 8 2 1 4 7 6 8 10 10 13 14 12 15 16 20 24 27 32 36 40 34 24 24 25 28
13 9 9 16 17 24 13 11 19 14 13 15 25 34 37 34 33 30 27 25 23 19 17 15 12 9 9 6 4 3 5 6 9 10 11 14 18 20 19 21 24 28 31 34 36 30 24 25 23
12 19 13 10 11 20 24 13 8 7 12 16 23 31 37 35 33 32 30 27 26 23 20 19 18 16 15 14 12 12 10 10 11 13 15 18 23 23 21 22 24 28 31 35 36 35 29 27 25
10 20 16 16 19 13 17 28 11 8 8 15 18 25 31 32 31 32 32 31 30 29 27 25 22 19 19 18 17 16 16 15 18 19 21 24 27 28 25 24 24 29 32 36 38 36 33 30 28
Wind_Direction_500mb
321 333 337 294 249 245 87 85 83 86 96 83 73 48 58 33 7 62 135 134 144 146 150 143 137 137 136 137 139 141 138 132 120 109 102 91 83 77 75 83 94 99 101 105 109 114 118 120 112
326 332 303 278 264 147 91 104 74 78 81 103 76 114 52 67 60 113 134 142 142 146 150 147 141 139 137 134 130 129 127 121 115 111 101 92 85 79 81 94 102 105 106 108 112 118 121 119 113
336 336 272 285 278 64 101 71 78 109 102 98 113 58 59 69 113 115 142 142 146 142 144 151 147 144 140 133 126 119 114 116 116 109 102 97 94 96 100 111 116 118 120 125 131 135 134 133 121
273 242 231 254 119 91 38 64 75 124 107 73 106 84 84 103 108 131 142 144 142 144 146 153 151 150 143 134 123 114 106 105 104 98 92 86 83 85 95 119 138 145 147 146 153 157 159 155 135
231 245 224 225 159 57 50 64 133 112 105 89 99 97 105 60 125 139 145 146 145 145 151 157 152 153 148 139 128 117 108 101 92 83 76 70 68 68 83 121 179 195 197 193 192 203 211 217 229
218 267 217 198 137 117 85 72 145 103 105 104 102 108 91 113 131 142 147 148 150 150 147 162 158 157 154 146 135 127 128 126 101 78 65 56 55 57 54 33 252 241 236 234 229 227 239 246 249
276 234 177 103 125 153 78 111 168 113 113 73 122 98 115 133 145 148 150 153 159 157 156 157 163 160 158 156 147 142 149 157 133 89 62 49 35 33 35 31 11 287 257 246 239 237 240 250 257
269 266 180 172 172 102 114 123 138 106 82 100 61 113 144 158 150 149 151 155 161 163 163 162 158 161 155 170 167 170 176 178 177 115 39 27 24 18 28 19 28 17 318 269 256 247 245 247 254
265 230 167 127 191 115 135 138 109 106 108 72 59 86 125 150 153 150 153 158 164 169 171 168 168 180 166 179 201 196 205 211 226 265 354 349 27 319 326 315 339 344 359 321 269 254 247 247 249
265 132 59 53 90 104 132 131 122 134 113 94 91 99 115 127 139 153 158 163 168 174 180 183 183 198 190 199 202 213 222 225 234 251 281 282 271 276 290 294 324 328 339 352 339 286 256 245 255
348 86 77 75 79 104 118 101 79 128 81 69 113 117 119 125 135 149 157 164 170 181 192 195 223 216 203 213 226 223 229 236 259 264 269 267 271 285 296 283 309 321 304 309 294 286 282 242 243
198 81 46 61 68 121 89 111 74 67 88 103 111 116 120 121 125 139 158 165 189 201 204 218 236 247 249 233 242 238 232 244 248 259 268 271 278 285 280 276 271 285 276 263 270 254 252 253 257
211 103 87 62 81 95 91 81 93 81 98 107 111 113 112 111 108 102 115 120 155 175 218 237 250 256 256 248 241 245 243 255 253 265 270 268 271 279 287 277 275 265 261 261 259 256 254 254 262
103 135 124 122 115 120 108 95 130 85 117 114 113 108 104 99 97 92 112 134 138 227 239 251 254 256 251 254 245 244 256 253 265 263 267 267 270 275 280 286 284 273 265 261 258 259 258 256 257
157 179 147 144 144 135 147 105 88 117 134 127 119 108 98 86 76 75 187 224 238 252 251 255 262 271 268 258 260 252 250 255 260 266 275 277 283 285 287 283 281 274 267 265 266 265 265 265 267
210 237 191 142 181 163 260 136 123 139 148 138 133 120 104 86 75 63 51 52 25 291 281 278 275 287 278 269 267 259 256 265 267 277 286 287 289 289 284 284 277 275 269 268 266 265 264 265 266
202 220 221 141 163 172 225 124 134 160 161 153 151 136 122 101 79 70 67 61 55 25 336 330 313 268 248 260 266 253 253 240 263 276 280 272 288 282 271 282 280 279 274 272 267 265 263 266 264
188 232 222 254 118 217 207 113 163 178 183 173 164 153 137 114 90 81 74 76 74 71 66 59 50 54 71 71 83 106 244 263 277 283 285 284 283 282 283 277 275 272 273 274 271 265 265 269 273
243 246 209 79 128 220 224 171 176 183 192 184 178 167 151 128 110 95 89 84 79 82 78 72 66 62 66 81 131 210 326 312 301 296 296 297 293 290 285 280 278 273 269 261 261 267 270 274 280
223 207 130 121 151 260 183 188 202 195 198 193 186 178 162 145 129 112 100 93 92 89 81 73 66 60 62 57 45 26 18 11 6 341 325 320 317 313 309 294 286 280 272 268 264 266 265 269 283
211 234 157 13 152 204 187 187 192 197 203 205 206 186 173 164 153 137 123 109 94 89 83 78 74 69 65 60 40 22 17 23 23 13 9 344 341 335 331 327 316 314 306 295 288 284 278 278 257
176 149 165 156 225 241 204 278 188 176 203 207 203 198 186 174 161 153 142 129 113 95 93 86 75 66 58 61 57 66 53 38 22 20 356 3 353 353 353 351 345 341 336 327 329 336 319 304 295
91 158 211 239 261 289 198 249 117 174 204 208 207 200 192 182 172 163 156 143 127 107 96 85 72 59 52 49 55 57 59 40 34 26 24 16 4 2 4 7 8 4 4 358 352 341 331 310 292
144 173 202 241 260 248 249 259 266 194 224 219 194 203 194 182 175 167 161 152 141 123 109 91 76 63 55 48 44 43 46 56 46 37 33 24 19 15 11 11 10 4 6 356 355 357 356 346 317
210 222 249 229 210 246 104 243 269 88 11 248 228 202 191 180 177 173 169 163 155 143 129 111 87 71 62 50 37 32 41 49 39 45 28 37 26 23 22 25 20 13 3 358 352 346 349 359 3
215 282 272 285 272 268 155 252 122 78 232 226 237 190 184 180 178 176 176 173 167 159 146 137 116 92 60 37 32 45 58 55 51 47 56 42 36 29 30 28 25 22 17 4 349 348 350 344 328
174 235 353 287 251 265 265 224 207 187 194 194 189 181 185 185 184 184 186 181 173 174 177 170 169 185 212 9 17 24 38 62 51 42 47 23 27 19 11 12 11 11 12 14 12 340 340 335 332
276 113 210 209 272 277 278 249 268 186 205 191 190 194 190 190 192 196 196 195 193 194 197 204 212 216 229 231 249 248 314 352 354 360 358 354 357 358 355 355 356 359 358 358 2 352 334 334 326
177 218 240 299 299 293 294 300 70 224 183 190 202 202 199 199 202 205 206 207 206 207 209 211 214 220 234 240 241 247 248 277 304 315 316 319 327 328 331 335 342 345 347 346 346 341 334 328 323
271 259 231 251 249 240 295 280 105 147 212 209 210 208 214 217 218 220 219 215 211 215 215 219 216 222 231 233 238 247 253 271 282 291 297 303 306 306 307 312 321 329 333 336 337 335 329 325 320
Wind_Speed_850mb
17 21 17 10 13 10 18 21 7 14 8 14 11 11 26 27 22 13 30 27 35 33 29 28 29 29 28 26 24 21 16 14 12 11 12 12 12 13 14 16 19 22 23 25 28 30 33 31 26
13 14 9 13 13 13 19 9 19 19 23 12 12 12 25 18 23 35 31 34 37 33 30 27 25 27 24 22 19 14 12 12 11 11 10 10 11 13 14 17 20 22 24 26 27 26 26 24 18
7 5 11 8 6 17 21 18 20 16 8 8 11 22 15 16 27 24 30 41 35 32 29 27 25 24 23 21 20 17 15 14 13 13 12 12 11 11 13 15 16 16 17 17 18 19 17 13 9
4 6 9 13 6 17 10 15 12 18 17 9 14 23 24 26 14 23 39 38 35 30 27 26 23 23 20 17 16 13 12 12 12 11 11 11 11 10 9 9 10 11 13 14 16 16 12 8 3
6 9 11 11 7 6 5 7 2 15 17 20 11 21 26 8 20 35 39 36 33 30 25 24 22 18 17 15 12 10 8 7 7 7 8 8 8 7 5 3 5 7 9 11 14 15 13 10 8
13 9 13 19 11 5 5 5 7 17 21 19 33 35 18 14 29 33 35 33 29 29 26 23 21 19 16 13 11 9 6 4 4 4 6 6 6 6 4 1 3 7 12 14 16 18 20 19 17
18 12 3 4 12 13 9 7 16 19 25 23 17 22 18 23 31 30 32 30 28 25 23 21 19 18 15 13 11 8 6 4 3 3 4 5 6 7 7 6 4 5 10 15 20 23 25 26 25
10 10 15 6 16 24 10 13 15 18 25 21 7 11 22 32 32 30 30 27 25 23 19 17 18 13 12 10 11 10 9 7 4 1 3 6 6 6 6 7 7 5 4 9 14 19 23 25 25
9 12 14 14 15 19 17 25 15 14 26 23 14 18 30 33 34 31 30 26 23 21 17 15 12 12 13 13 11 10 9 6 4 2 2 4 2 5 7 6 7 6 5 4 7 12 16 18 19
15 6 19 10 8 18 21 27 24 19 26 28 32 32 32 32 30 30 27 24 21 18 16 13 13 12 12 10 12 11 10 6 7 7 7 4 10 6 5 9 9 9 8 6 5 6 10 11 10
2 19 10 19 15 15 29 27 11 24 24 16 32 33 32 31 28 26 21 18 16 15 14 11 12 15 12 11 12 11 11 10 12 12 11 12 11 12 10 10 12 12 13 8 11 8 5 12 13
10 6 8 16 9 13 21 23 36 35 23 30 34 33 31 27 22 17 15 11 9 9 11 9 11 14 16 15 14 15 14 14 13 15 18 17 13 15 14 13 15 16 13 16 14 12 17 17 18
4 8 7 10 20 28 34 32 31 35 29 30 31 29 26 22 18 15 12 8 8 7 7 6 11 15 17 20 17 18 17 16 15 19 19 21 19 19 18 21 21 22 21 20 20 20 22 22 23
6 9 14 10 15 17 19 22 7 18 23 28 26 24 21 18 14 10 8 4 4 8 7 12 12 19 18 21 23 20 19 18 18 17 17 22 24 23 21 21 22 23 25 25 26 27 29 29 30
7 20 17 12 13 11 16 14 18 16 21 24 21 19 19 17 13 9 5 6 12 12 17 20 19 24 21 22 26 22 21 18 19 19 24 26 28 29 32 28 27 26 27 30 32 36 37 38 38
20 15 26 20 15 16 9 26 18 15 21 21 18 17 16 17 15 14 11 8 4 3 9 12 14 14 19 21 21 18 17 15 16 16 18 24 27 31 35 30 28 27 30 33 34 37 39 41 40
17 23 26 21 6 11 23 23 19 14 20 18 16 15 14 15 15 15 13 10 6 3 5 8 6 5 6 11 11 7 17 9 14 11 12 26 19 20 29 25 29 32 34 35 37 39 42 44 44
20 22 11 22 11 19 24 15 16 17 21 19 17 15 14 13 13 14 15 13 13 14 14 16 16 13 9 9 7 1 8 14 20 23 26 30 32 35 37 37 34 36 34 37 38 40 38 43 44
3 9 7 4 3 8 8 15 17 19 22 23 19 17 16 15 15 16 16 18 18 18 18 20 19 20 18 11 4 3 8 9 13 17 22 26 30 34 35 35 35 35 32 34 35 37 36 37 38
19 15 12 10 7 9 17 17 14 19 24 21 20 19 19 19 16 16 16 17 17 19 21 22 23 24 22 19 15 13 12 10 9 13 16 17 19 21 24 28 30 33 33 30 32 34 39 38 30
17 18 12 2 13 5 18 17 22 21 19 21 20 18 19 20 19 18 17 17 17 19 21 22 24 22 21 18 15 16 14 14 12 15 15 18 21 24 25 26 28 30 32 34 36 37 35 37 36
22 4 5 12 14 9 13 12 28 29 27 30 30 28 26 24 22 21 20 18 17 17 20 24 26 26 25 23 18 12 9 8 12 14 17 19 23 24 25 25 23 25 28 29 28 28 29 35 41
13 7 4 5 13 15 22 16 12 22 23 30 35 33 30 28 27 26 24 19 17 16 18 23 25 26 27 25 21 16 15 14 13 13 16 21 22 22 22 23 23 23 23 24 24 24 24 24 26
18 14 10 12 15 22 15 12 25 21 12 16 36 34 34 34 32 29 25 21 17 15 15 18 21 23 23 22 21 20 19 17 13 17 16 17 18 20 24 23 23 24 23 24 26 27 26 25 27
18 16 17 15 16 12 10 10 23 8 2 10 14 35 36 36 36 32 27 22 20 16 14 13 14 16 17 16 16 15 15 17 18 17 16 18 18 21 28 29 28 25 25 24 22 24 26 26 21
20 17 18 16 14 8 13 13 3 6 3 10 14 30 36 38 36 34 30 25 22 18 15 13 10 9 9 12 15 14 16 12 14 18 15 15 16 20 28 30 33 34 32 27 24 21 23 23 24
13 20 9 17 18 19 25 8 18 8 7 11 21 30 36 36 34 32 30 25 19 17 14 12 8 2 1 4 7 6 8 10 10 13 14 12 15 16 20 24 27 32 36 40 34 24 24 25 28
13 9 9 16 17 24 13 11 19 14 13 15 25 34 37 34 33 30 27 25 23 19 17 15 12 9 9 6 4 3 5 6 9 10 11 14 18 20 19 21 24 28 31 34 36 30 24 25 23
12 19 13 10 11 20 24 13 8 7 12 16 23 31 37 35 33 32 30 27 26 23 20 19 18 16 15 14 12 12 10 10 11 13 15 18 23 23 21 22 24 28 31 35 36 35 29 27 25
10 20 16 16 19 13 17 28 11 8 8 15 18 25 31 32 31 32 32 31 30 29 27 25 22 19 19 18 17 16 16 15 18 19 21 24 27 28 25 24 24 29 32 36 38 36 33 30 28
Wind_Direction_850mb
321 333 337 294 249 245 87 85 83 86 96 83 73 48 58 33 7 62 135 134 144 146 150 143 137 137 136 137 139 141 138 132 120 109 102 91 83 77 75 83 94 99 101 105 109 114 118 120 112
326 332 303 278 264 147 91 104 74 78 81 103 76 114 52 67 60 113 134 142 142 146 150 147 141 139 137 134 130 129 127 121 115 111 101 92 85 79 81 94 102 105 106 108 112 118 121 119 113
336 336 272 285 278 64 101 71 78 109 102 98 113 58 59 69 113 115 142 142 146 142 144 151 147 144 140 133 126 119 114 116 116 109 102 97 94 96 100 111 116 118 120 125 131 135 134 133 121
273 242 231 254 119 91 38 64 75 124 107 73 106 84 84 103 108 131 142 144 142 144 146 153 151 150 143 134 123 114 106 105 104 98 92 86 83 85 95 119 138 145 147 146 153 157 159 155 135
231 245 224 225 159 57 50 64 133 112 105 89 99 97 105 60 125 139 145 146 145 145 151 157 152 153 148 139 128 117 108 101 92 83 76 70 68 68 83 121 179 195 197 193 192 203 211 217 229
218 267 217 198 137 117 85 72 145 103 105 104 102 108 91 113 131 142 147 148 150 150 147 162 158 157 154 146 135 127 128 126 101 78 65 56 55 57 54 33 252 241 236 234 229 227 239 246 249
276 234 177 103 125 153 78 111 168 113 113 73 122 98 115 133 145 148 150 153 159 157 156 157 163 160 158 156 147 142 149 157 133 89 62 49 35 33 35 31 11 287 257 246 239 237 240 250 257
269 266 180 172 172 102 114 123 138 106 82 100 61 113 144 158 150 149 151 155 161 163 163 162 158 161 155 170 167 170 176 178 177 115 39 27 24 18 28 19 28 17 318 269 256 247 245 247 254
265 230 167 127 191 115 135 138 109 106 108 72 59 86 125 150 153 150 153 158 164 169 171 168 168 180 166 179 201 196 205 211 226 265 354 349 27 319 326 315 339 344 359 321 269 254 247 247 249
265 132 59 53 90 104 132 131 122 134 113 94 91 99 115 127 139 153 158 163 168 174 180 183 183 198 190 199 202 213 222 225 234 251 281 282 271 276 290 294 324 328 339 352 339 286 256 245 255
348 86 77 75 79 104 118 101 79 128 81 69 113 117 119 125 135 149 157 164 170 181 192 195 223 216 203 213 226 223 229 236 259 264 269 267 271 285 296 283 309 321 304 309 294 286 282 242 243
198 81 46 61 68 121 89 111 74 67 88 103 111 116 120 121 125 139 158 165 189 201 204 218 236 247 249 233 242 238 232 244 248 259 268 271 278 285 280 276 271 285 276 263 270 254 252 253 257
211 103 87 62 81 95 91 81 93 81 98 107 111 113 112 111 108 102 115 120 155 175 218 237 250 256 256 248 241 245 243 255 253 265 270 268 271 279 287 277 275 265 261 261 259 256 254 254 262
103 135 124 122 115 120 108 95 130 85 117 114 113 108 104 99 97 92 112 134 138 227 239 251 254 256 251 254 245 244 256 253 265 263 267 267 270 275 280 286 284 273 265 261 258 259 258 256 257
157 179 147 144 144 135 147 105 88 117 134 127 119 108 98 86 76 75 187 224 238 252 251 255 262 271 268 258 260 252 250 255 260 266 275 277 283 285 287 283 281 274 267 265 266 265 265 265 267
210 237 191 142 181 163 260 136 123 139 148 138 133 120 104 86 75 63 51 52 25 291 281 278 275 287 278 269 267 259 256 265 267 277 286 287 289 289 284 284 277 275 269 268 266 265 264 265 266
202 220 221 141 163 172 225 124 134 160 161 153 151 136 122 101 79 70 67 61 55 25 336 330 313 268 248 260 266 253 253 240 263 276 280 272 288 282 271 282 280 279 274 272 267 265 263 266 264
188 232 222 254 118 217 207 113 163 178 183 173 164 153 137 114 90 81 74 76 74 71 66 59 50 54 71 71 83 106 244 263 277 283 285 284 283 282 283 277 275 272 273 274 271 265 265 269 273
243 246 209 79 128 220 224 171 176 183 192 184 178 167 151 128 110 95 89 84 79 82 78 72 66 62 66 81 131 210 326 312 301 296 296 297 293 290 285 280 278 273 269 261 261 267 270 274 280
223 207 130 121 151 260 183 188 202 195 198 193 186 178 162 145 129 112 100 93 92 89 81 73 66 60 62 57 45 26 18 11 6 341 325 320 317 313 309 294 286 280 272 268 264 266 265 269 283
211 234 157 13 152 204 187 187 192 197 203 205 206 186 173 164 153 137 123 109 94 89 83 78 74 69 65 60 40 22 17 23 23 13 9 344 341 335 331 327 316 314 306 295 288 284 278 278 257
176 149 165 156 225 241 204 278 188 176 203 207 203 198 186 174 161 153 142 129 113 95 93 86 75 66 58 61 57 66 53 38 22 20 356 3 353 353 353 351 345 341 336 327 329 336 319 304 295
91 158 211 239 261 289 198 249 117 174 204 208 207 200 192 182 172 163 156 143 127 107 96 85 72 59 52 49 55 57 59 40 34 26 24 16 4 2 4 7 8 4 4 358 352 341 331 310 292
144 173 202 241 260 248 249 259 266 194 224 219 194 203 194 182 175 167 161 152 141 123 109 91 76 63 55 48 44 43 46 56 46 37 33 24 19 15 11 11 10 4 6 356 355 357 356 346 317
210 222 249 229 210 246 104 243 269 88 11 248 228 202 191 180 177 173 169 163 155 143 129 111 87 71 62 50 37 32 41 49 39 45 28 37 26 23 22 25 20 13 3 358 352 346 349 359 3
215 282 272 285 272 268 155 252 122 78 232 226 237 190 184 180 178 176 176 173 167 159 146 137 116 92 60 37 32 45 58 55 51 47 56 42 36 29 30 28 25 22 17 4 349 348 350 344 328
174 235 353 287 251 265 265 224 207 187 194 194 189 181 185 185 184 184 186 181 173 174 177 170 169 185 212 9 17 24 38 62 51 42 47 23 27 19 11 12 11 11 12 14 12 340 340 335 332
276 113 210 209 272 277 278 249 268 186 205 191 190 194 190 190 192 196 196 195 193 194 197 204 212 216 229 231 249 248 314 352 354 360 358 354 357 358 355 355 356 359 358 358 2 352 334 334 326
177 218 240 299 299 293 294 300 70 224 183 190 202 202 199 199 202 205 206 207 206 207 209 211 214 220 234 240 241 247 248 277 304 315 316 319 327 328 331 335 342 345 347 346 346 341 334 328 323
271 259 231 251 249 240 295 280 105 147 212 209 210 208 214 217 218 220 219 215 211 215 215 219 216 222 231 233 238 247 253 271 282 291 297 303 306 306 307 312 321 329 333 336 337 335 329 325 320